Вернуться в каталог

CZ-6A DEB

АктивенPO
NORAD 54997·DEBRIS·🇨🇳 China

Запущен Nov 11, 2022 с Taiyuan Satellite Launch Center

Loading…

Ближайшие Пролёты (ближайшие 24 часа)

TLE

СвежийSource: Space-Track

Эпоха: Sep 14, 2026, 05:39 UTC

1 54997U 22151UN  26257.23601356  .00007494  00000-0  95183-3 0  9996
2 54997  98.6217 344.8237 0069952 306.2710  53.2051 14.80260810203135

Отслеживайте CZ-6A DEB в реальном времени с AllMySat

Download on the App Store